Location: Cherokee Mobile Gardens
(33.8275°N, 117.9962°W)
Time: 16:57:34
(UTC+00:00)

Daily predictions for brighter satellites

Satellite Brightness Start Highest point End
(mag) Time Altitude Azimuth Time Altitude Azimuth Time Altitude Azimuth
Lacrosse 5 rocket 3.6 12:05:34 11° NNW 12:05:34 11° NNW 12:06:21 10° NNW
Cosmos 1908 Rocket 3.7 12:02:21 10° NNW 12:06:18 47° W 12:06:18 47° W
STARLINK-1011 4.4 12:05:03 31° S 12:06:35 46° SE 12:10:33 10° ENE
STARLINK-1036 4.2 12:09:50 30° SSW 12:11:32 52° SE 12:15:34 10° NE
CZ-2C R/B 2.1 12:06:59 10° N 12:11:35 81° WNW 12:14:44 20° SSW
Cosmos 2082 4.2 12:07:45 10° S 12:13:19 61° ESE 12:18:57 10° NNE
Cosmos 2142 Rocket 4.4 12:07:32 10° NNW 12:13:51 69° W 12:20:05 10° S
Cosmos 1544 4.1 12:11:05 10° N 12:14:36 47° E 12:18:07 10° SSE
Okean 1-7 3.6 12:15:09 36° W 12:15:12 36° W 12:19:15 10° NNW
STARLINK-1044 4.0 12:14:35 29° SSW 12:16:29 59° SE 12:20:33 10° NE
Cosmos 2333 Rocket 2.7 12:11:54 10° NW 12:16:58 35° WSW 12:22:02 10° SSW
GPS 2-04 Rocket1 2.5 12:16:50 42° WNW 12:18:03 83° NNE 12:21:45 10° E
Cosmos 1515 3.6 12:17:05 36° SSW 12:18:25 63° W 12:22:11 10° N
STARLINK-1047 3.8 12:19:22 27° SSW 12:21:26 67° SE 12:25:33 10° NE
Okean 1 4.4 12:23:56 26° WNW 12:23:56 26° WNW 12:26:51 10° NNW
STARLINK-1037 3.8 12:21:20 27° SSW 12:23:28 70° SE 12:27:35 10° NE
Cosmos 1743 3.1 12:20:08 10° NNW 12:23:45 38° W 12:24:45 32° SW
ATLAS 3B R/B 4.3 12:18:05 10° S 12:23:55 32° ESE 12:29:40 10° NE
IDEFIX/ARIANE 42P 3.8 12:21:02 10° NNW 12:24:48 21° WNW 12:25:10 21° WNW
STARLINK-1027 3.7 12:22:44 27° SW 12:24:58 79° SE 12:29:14 10° NE
USA 238 DEB 3.6 12:21:55 21° SW 12:26:27 65° WNW 12:33:14 10° NNE
USA 238 3.6 12:22:00 21° SW 12:26:35 66° WNW 12:33:21 10° NNE
CZ-4B R/B 3.7 12:29:00 13° NW 12:29:00 13° NW 12:29:31 10° NW
Yuri Rocket 4.3 12:27:23 22° SW 12:28:34 25° SSW 12:32:37 10° SE
Cosmos 1689 Rocket 2.3 12:28:24 28° SSW 12:29:35 45° W 12:32:30 10° NNW
STARLINK-1059 3.6 12:28:58 24° SW 12:31:24 84° SE 12:35:33 10° NE
Cosmos 1975 2.7 12:27:37 10° NNW 12:31:35 64° W 12:35:33 10° S
CZ-4B R/B 3.8 12:28:30 10° NNE 12:32:33 87° E 12:36:24 10° SSW
SL-4 R/B 2.3 12:29:53 10° NW 12:33:57 71° NE 12:38:22 10° SE
STARLINK-1057 3.5 12:33:44 22° SW 12:36:22 87° NW 12:40:31 10° NE
Meteor 2-4 Rocket 3.8 12:30:34 10° SSW 12:36:27 77° W 12:42:24 10° N
FENGYUN 3A 4.5 12:34:40 10° NNE 12:39:57 54° E 12:45:11 10° S
USA 234 3.6 12:35:15 10° SSE 12:41:17 40° SW 12:47:21 10° WNW
STARLINK-1034 3.5 12:38:31 20° SW 12:41:20 78° NW 12:45:29 10° NE
Meteor 1-13 Rocket 4.4 12:37:45 10° S 12:43:38 83° E 12:49:24 10° N
ATLAS CENTAUR R/B 2.2 12:43:53 16° NW 12:43:53 16° NW 12:45:01 10° N
Cosmos 2237 Rocket 2.1 12:39:37 10° NNW 12:45:15 68° WSW 12:50:53 10° S
Cosmos 389 Rocket 2.7 12:42:22 10° SSW 12:45:51 47° W 12:49:19 10° N
STARLINK-1068 3.6 12:43:19 18° SW 12:46:19 70° NW 12:50:27 10° NE
Cosmos 1300 Rocket 3.7 12:42:28 10° N 12:46:47 74° E 12:51:04 10° S
ADEOS 4.5 12:45:35 10° N 12:50:01 29° WNW 12:54:20 11° SW
Cosmos 1484 Rocket 2.6 12:49:18 10° N 12:53:08 70° WNW 12:56:53 10° SSW
Nadezhda 4 Rocket 4.1 12:48:37 10° SSW 12:54:48 60° W 13:01:03 10° N
STARLINK-1031 4.0 12:52:17 15° WSW 12:55:33 50° NW 12:59:37 10° NE
STARLINK-1060 3.8 12:52:53 14° WSW 12:56:18 56° NW 13:00:22 10° NE
NOSS 3-2 (A) 3.9 12:51:46 13° WSW 12:56:19 38° NW 13:02:07 10° NNE
Cosmos 1378 Rocket 4.1 12:53:43 10° S 12:57:57 61° E 13:02:14 10° NNE
H-2A R/B 2.4 12:54:02 10° N 12:58:09 61° WNW 13:02:04 10° SSW
CZ-4B R/B 3.1 12:55:08 10° N 12:59:16 58° WNW 13:03:34 10° SSW
METEOR-M 4.3 12:54:18 10° NNE 12:59:40 81° ESE 13:04:59 10° S
STARLINK-1030 4.0 12:57:39 12° WSW 13:01:16 50° NW 13:05:18 10° NE
Cosmos 2297 Rocket 3.3 12:57:25 12° WSW 13:01:32 25° WNW 13:06:10 10° N
NOSS 0 Rocket 4.5 12:56:22 10° NW 13:01:47 33° WSW 13:07:11 10° SSW
Cosmos 1048 Rocket 4.0 12:59:15 10° NNW 13:04:32 69° WSW 13:09:51 10° S
ATLAS 5 CENTAUR R/B 2.0 12:57:32 10° SW 13:04:41 66° WNW 13:07:21 10° NNE
Cosmos 1125 Rocket 4.2 13:00:16 10° SW 13:05:05 35° WNW 13:09:58 10° N
STARLINK-1020 4.1 13:02:27 11° WSW 13:06:16 45° NW 13:10:15 10° NNE
Cosmos 2263 Rocket 4.1 13:02:09 10° SSE 13:07:08 33° ESE 13:12:10 10° NE
Cosmos 494 Rocket 4.4 13:03:00 10° NNW 13:08:16 72° ENE 13:13:30 10° SSE
STARLINK-1052 4.2 13:07:22 10° WSW 13:11:16 41° NW 13:15:12 10° NNE
NOSS 3-2 (C) 3.9 13:16:52 10° WSW 13:22:09 40° NW 13:28:02 10° NNE
Centaur D-1A AC-31 4.2 13:52:03 10° WSW 14:50:03 60° S 14:56:13 10° E
